Location: Newark
(13.6797°N, 8.5297°E)
Time: 19:36:37
(UTC+00:00)

Transit 2A - All Passes

Search period start: 19 January 2020 00:00
Search period end: 29 January 2020 00:00
Orbit: 601 x 957 km, 66.7° (Epoch: 18 January)

Date Brightness Start Highest point End Pass type
(mag) Time Alt. Az. Time Alt. Az. Time Alt. Az.
19 Jan - 06:41:17 10° NNW 06:46:28 72° ENE 06:52:14 10° SSE daylight
19 Jan - 19:24:48 10° SSW 19:29:41 75° ESE 19:34:10 10° NNE visible
20 Jan - 06:07:27 10° N 06:12:24 43° ENE 06:17:49 10° SE daylight
20 Jan - 07:52:34 10° WNW 07:55:22 14° WSW 07:58:18 10° SW daylight
20 Jan - 18:51:01 10° S 18:55:36 41° ESE 18:59:50 10° NE visible
21 Jan - 05:33:57 10° NNE 05:38:18 26° ENE 05:43:00 10° SE daylight
21 Jan - 07:17:03 10° WNW 07:21:16 23° WSW 07:25:47 10° SSW daylight
21 Jan - 18:17:39 10° SSE 18:21:30 23° ESE 18:25:08 10° ENE visible
21 Jan - 20:01:18 10° WSW 20:04:24 17° WNW 20:07:23 10° NNW visible
22 Jan - 05:00:57 10° NNE 05:04:11 16° ENE 05:07:35 10° ESE visible
22 Jan - 06:42:15 10° NW 06:47:10 38° WSW 06:52:32 10° S daylight
22 Jan - 17:45:06 10° SE 17:47:25 13° ESE 17:49:39 10° E visible
22 Jan - 19:26:08 10° SW 19:30:17 30° WNW 19:34:13 10° N visible
23 Jan - 06:07:50 10° NNW 06:13:03 63° WSW 06:18:50 10° S daylight
23 Jan - 18:51:32 10° SW 18:56:13 53° WNW 19:00:34 10° N visible
24 Jan - 05:33:42 10° NNW 05:38:59 80° ENE 05:44:50 10° SSE daylight
24 Jan - 18:17:18 10° SSW 18:22:08 84° ESE 18:26:36 10° NNE visible
25 Jan - 04:59:49 10° N 05:04:54 48° ENE 05:10:29 10° SE visible
25 Jan - 06:45:29 10° W 06:47:52 13° WSW 06:50:21 10° SW daylight
25 Jan - 17:43:26 10° S 17:48:03 46° ESE 17:52:20 10° NE visible
26 Jan - 04:26:13 10° N 04:30:48 30° ENE 04:35:46 10° SE visible
26 Jan - 06:09:42 10° WNW 06:13:46 22° WSW 06:18:07 10° SSW daylight
26 Jan - 17:09:59 10° SSE 17:13:58 26° ESE 17:17:43 10° NE daylight
26 Jan - 18:54:10 10° WSW 18:56:52 15° WNW 18:59:29 10° NNW visible
27 Jan - 03:53:04 10° NNE 03:56:41 18° ENE 04:00:31 10° ESE visible
27 Jan - 05:34:48 10° NW 05:39:40 35° WSW 05:44:58 10° S daylight
27 Jan - 16:37:12 10° SE 16:39:53 15° ESE 16:42:27 10° ENE daylight
27 Jan - 18:18:49 10° SW 18:22:45 26° WNW 18:26:29 10° N visible
28 Jan - 03:21:14 10° NE 03:22:32 11° ENE 03:23:51 10° E visible
28 Jan - 05:00:19 10° NNW 05:05:34 57° WSW 05:11:21 10° S visible
28 Jan - 17:44:07 10° SW 17:48:40 46° WNW 17:52:55 10° N visible
